Hourly Data Report for March 05, 2003

SHERBROOKE A
QUEBEC

45°26'00.000" N
71°41'00.000" W
241.40 m
7028124
71610
YSC

Download Data

Hourly Data (March 2003)
Hourly Data Report for March 5, 2003
TIME
LST
Temp Definition
°C
Dew Point Definition
°C
Rel Hum Definition
%
Precip. Amount Definition
mm

Wind Dir Definition
10's deg

Wind Spd Definition
km/h
Visibility Definition
km
Stn Press Definition
kPa
Hmdx Definition


Wind Chill Definition


Weather Definition


00:00 -4.6 -7.5 80     0 1.9 98.33     Snow
01:00 -5.0 -8.0 79     0 3.5 98.32     Snow
02:00 -5.4 -8.2 81     0 5.6 98.29     Snow
03:00 -4.9 -7.8 80     0 1.6 98.25     Snow
04:00 -4.7 -7.5 81     0 1.0 98.20     Snow
05:00 -4.3 -7.1 81     0 0.6 98.16     Snow
06:00 -4.2 -7.0 81   8 7 1.1 98.06   -7 Snow
07:00 -3.9 -6.7 81   4 4 2.1 98.04   -6 Snow
08:00 -3.9 -6.9 80   4 11 1.6 98.01   -8 Snow
09:00 -4.6 -8.0 77   6 13 2.4 97.92   -10 Snow
10:00 -4.7 -8.3 76   4 15 2.4 97.81   -10 Snow
11:00 -3.9 -7.6 75   5 13 2.4 97.65   -9 Snow
12:00 -3.6 -7.1 77   5 11 1.6 97.46   -8 Snow
13:00 -3.2 -6.5 78   4 11 1.6 97.27   -7 Snow
14:00 -3.1 -6.4 78   4 13 1.2 97.18   -8 Snow
15:00 -2.9 -6.3 77   2 15 1.1 97.17   -8 Snow
16:00 -3.0 -6.1 79   3 9 1.2 97.17   -7 Snow
17:00 -3.3 -6.6 78   2 9 1.6 97.23   -7 Snow
18:00 -3.9 -7.1 78   4 4 2.7 97.25   -6 Snow
19:00 -4.3 -7.4 79   29 4 9.7 97.36   -6  
20:00 -6.0 -9.3 77   25 15 6.4 97.47   -12 Snow
21:00 -7.2 -10.7 76   26 11 11.3 97.62   -12  
22:00 -8.0 -11.4 76   28 20 12.9 97.76   -15  
23:00 -8.1 -11.6 76   28 20 11.3 97.83   -15 Snow

Notes on Data Quality.

Legend

  • E = Estimated
  • M = Missing
  • NA = Not Available*
  • [empty] = Indicates an unobserved value
Date modified: